Tracking 31027 objects as of 19-Jul-2025
HD Live streaming from Space Station
objects crossing your sky now

DELTA 1 DEB

Track DELTA 1 DEB now!
10-day predictions


NORAD ID: 42563
Int'l Code: 1972-058JW
Perigee: 806.7 km
Apogee: 1,172.5 km
Inclination: 98.8 °
Period: 104.7 minutes
Semi major axis: 7360 km
RCS: Unknown
Launch date: July 23, 1972
Source: United States (US)
Launch site: AIR FORCE WESTERN TEST RANGE (AFWTR)

Note: This is SATELLITE DEBRIS
Your satellite tracking list
FLOCK 3P 17
Track 1 satellite(s)




NASA's NSSDC Master Catalog

Two Line Element Set (TLE):
1 42563U 72058JW  25198.34187718  .00000428  00000-0  39408-3 0  9997
2 42563  98.7958 337.6167 0248460 231.7678 126.0875 13.74775900577695
Source of the keplerian elements: AFSPC